Theta_e
315 316 315 314 314 314 313 312 312 313 312 314 314 313 312 311 310 313 315 315 317 316 315 318 318 318 318 318 324 326 329 336 337 339 341 341 344 345 345 345 344 343 341 337 334 335 336 335 335 340 345 345 344 344 343 343 342 341 341 341 342 342 342 342 341 342 341 341 341 341 340 340 341 340 340 340 340 339 339 338 337 337 337 336 336 336
314 316 315 314 314 314 313 314 314 314 313 312 312 312 311 311 311 314 315 315 317 316 316 318 318 318 318 320 324 326 332 336 337 341 343 342 343 343 344 344 342 341 339 338 338 336 336 337 337 340 345 345 345 344 343 343 342 342 342 341 341 340 341 341 340 340 339 339 341 340 341 341 341 341 340 341 341 341 340 339 339 338 337 337 336 337
315 315 314 313 314 314 314 314 314 313 314 314 313 312 312 312 312 313 315 316 316 317 318 318 317 318 319 323 324 327 335 338 337 341 342 341 342 342 342 341 340 341 341 342 342 340 338 340 342 344 346 346 345 344 344 344 343 342 342 341 340 340 341 340 338 340 340 340 340 340 340 339 340 340 340 340 340 340 340 340 340 338 338 338 338 337
314 314 314 314 313 313 313 313 313 313 313 315 314 313 312 313 311 311 315 317 315 319 321 318 317 318 320 323 324 329 336 338 338 340 339 339 340 340 340 340 341 343 344 344 343 342 341 343 344 345 345 345 344 344 343 343 342 341 341 341 339 339 340 340 339 339 339 339 338 338 337 336 337 337 338 338 338 339 339 339 339 338 337 338 337 337
314 313 313 314 312 312 312 312 314 314 313 315 316 314 313 313 313 313 315 316 316 319 322 319 314 316 323 322 323 332 338 337 338 340 339 338 338 338 339 339 340 342 343 343 342 341 340 341 343 344 345 344 343 343 342 342 342 341 340 340 340 339 339 340 339 339 338 337 337 338 337 337 338 338 338 338 338 338 337 338 339 337 336 336 335 335
313 313 313 312 312 312 311 311 313 314 314 316 317 316 315 315 315 315 316 317 314 314 319 318 311 314 324 322 324 335 339 337 338 340 339 338 338 337 338 338 339 341 340 340 340 339 338 339 341 342 343 343 342 342 342 342 342 341 340 340 340 340 339 340 339 339 339 338 338 339 339 338 339 339 339 339 339 339 338 338 338 337 336 335 335 336
312 313 313 312 312 312 311 311 311 314 315 315 316 317 316 316 315 316 315 315 313 313 318 320 315 315 318 319 324 333 337 338 339 340 339 338 339 338 338 338 338 338 338 339 339 339 339 339 341 341 341 341 340 340 340 341 341 341 341 341 340 340 340 340 340 340 339 339 339 339 339 338 339 338 339 339 339 339 338 338 338 337 336 335 335 336
313 314 313 312 312 311 311 311 311 313 314 314 317 317 317 316 316 316 315 314 315 317 318 317 317 315 314 319 324 328 336 341 340 341 341 340 341 341 339 339 338 337 337 339 341 340 339 339 340 339 339 338 338 338 339 339 339 340 340 340 340 339 340 340 340 340 340 339 339 339 339 339 339 339 338 338 337 337 337 337 337 337 336 336 336 336
313 314 313 312 312 311 310 311 313 314 313 314 316 317 318 318 317 318 316 315 316 316 313 313 315 313 313 322 323 326 338 343 342 341 342 341 341 342 341 340 339 338 340 340 339 339 338 338 338 337 338 337 337 337 337 336 337 337 337 338 338 338 338 338 338 338 338 337 337 337 337 337 336 336 335 334 334 334 334 334 334 335 336 337 336 336
314 314 314 312 312 311 311 313 314 313 313 315 315 316 318 317 319 318 315 314 316 316 314 313 313 311 313 321 321 324 335 341 342 342 340 340 340 341 341 339 338 338 340 339 337 337 337 337 337 337 337 337 336 337 337 336 336 336 336 336 337 336 336 335 335 335 335 335 335 335 334 335 334 334 334 334 334 334 334 334 334 334 335 336 335 336
314 314 315 314 313 312 313 313 313 313 314 315 315 314 315 317 318 317 318 317 314 317 319 315 312 311 313 318 321 323 331 338 342 342 340 340 341 340 338 335 335 336 338 338 336 335 335 335 336 335 335 335 335 335 336 336 335 335 335 335 335 334 333 333 332 333 333 333 334 334 334 334 334 335 334 334 334 334 334 334 334 334 334 334 335 335
314 314 314 315 315 314 313 312 313 313 313 315 316 314 314 316 314 311 316 317 316 322 321 313 313 313 311 319 328 329 331 338 342 341 340 342 341 339 336 334 335 336 337 336 334 334 333 333 333 333 333 332 333 333 333 333 333 333 332 332 332 332 331 331 331 331 332 332 333 333 333 333 334 334 334 334 333 333 333 333 333 333 333 333 334 334
314 314 314 315 316 315 313 312 313 312 313 315 315 315 314 314 312 311 315 317 320 324 318 314 316 310 315 330 340 343 339 339 341 338 338 341 339 338 336 335 335 335 334 333 333 333 333 332 332 331 331 331 331 332 331 332 332 331 331 330 330 330 330 330 330 331 331 331 331 332 332 332 332 333 333 333 333 332 333 333 333 333 333 333 332 332
315 315 314 315 316 316 313 311 311 311 312 312 312 315 316 314 312 314 317 317 319 319 315 314 313 313 328 341 340 344 343 338 339 336 336 338 336 336 335 334 334 333 333 332 331 331 331 331 330 330 331 330 330 330 330 330 330 330 329 329 329 329 328 328 328 329 329 329 330 330 330 330 330 331 331 332 332 332 332 332 332 332 332 331 331 330
317 317 316 315 315 316 314 312 312 312 312 313 314 316 316 316 316 317 318 318 320 318 312 313 316 327 343 343 337 341 340 337 337 335 335 335 334 334 333 332 332 332 332 330 330 330 329 329 329 329 329 329 329 329 329 329 328 328 328 327 327 327 327 327 327 327 327 327 328 328 328 328 329 329 330 331 331 331 332 331 331 332 331 330 330 329
314 315 315 315 315 315 314 314 314 314 314 315 315 314 313 317 320 322 321 319 321 318 313 324 334 338 341 338 337 340 337 336 335 333 333 333 332 332 331 331 331 330 330 329 329 329 328 328 328 328 328 327 328 328 327 327 327 327 326 326 326 326 326 326 326 326 326 326 326 326 326 326 328 328 329 330 330 331 332 331 331 331 330 330 329 329
314 315 315 314 315 314 314 315 314 315 317 316 314 312 314 316 318 321 320 316 320 319 318 334 344 340 339 339 338 338 336 336 334 332 332 331 331 331 330 330 329 329 329 328 328 328 327 327 327 326 326 326 326 326 326 326 325 325 325 325 325 325 325 325 325 325 325 325 325 325 325 326 327 328 328 329 330 331 331 331 330 330 330 329 329 329
318 317 315 314 314 314 315 316 314 315 317 314 312 312 314 315 315 322 321 314 319 321 322 339 346 341 342 343 339 339 338 337 334 332 332 330 330 329 329 329 328 328 328 327 327 326 325 326 326 325 325 325 325 325 324 324 324 324 324 324 324 325 325 324 324 324 324 325 325 325 325 325 326 327 328 329 330 330 330 330 329 329 329 329 329 329
318 317 316 314 314 315 315 316 316 315 315 313 313 313 315 316 314 319 321 316 319 320 322 337 344 341 342 341 340 341 340 338 335 331 331 330 329 329 328 328 327 326 326 326 325 325 324 324 324 324 324 324 324 323 323 323 322 323 323 323 324 324 324 323 323 324 324 323 323 323 324 325 326 327 328 329 330 330 329 329 329 329 329 329 329 329
320 318 320 317 313 315 314 314 314 314 314 313 314 313 314 317 316 317 317 317 321 320 320 335 342 342 340 338 339 341 338 336 334 331 330 329 328 328 327 327 326 326 325 325 324 324 323 323 323 323 323 323 323 322 322 322 321 322 322 323 323 323 323 323 323 323 322 323 323 324 324 325 327 328 328 329 329 329 329 328 329 329 328 329 329 329
318 317 322 322 314 313 313 314 314 313 314 312 313 314 312 313 315 318 317 315 320 321 325 338 344 341 338 336 336 338 336 333 332 330 329 328 327 327 327 326 326 325 325 323 323 323 322 322 322 322 322 322 322 322 322 321 321 321 322 322 323 323 323 323 322 322 322 323 324 324 324 325 326 327 327 328 328 328 328 328 328 328 328 328 328 329
318 317 321 322 316 312 312 315 312 313 314 312 313 314 312 313 315 317 317 314 314 320 327 339 346 341 336 336 336 336 334 331 330 329 328 327 327 327 326 326 325 324 323 322 322 323 322 322 322 321 321 321 322 322 321 321 321 321 322 322 322 322 322 322 321 321 322 323 324 324 323 323 323 324 325 325 325 326 326 327 327 326 327 328 328 328
327 323 318 318 317 314 314 315 313 313 314 312 314 315 314 319 316 316 324 321 314 316 320 332 345 343 334 333 335 335 332 329 328 327 327 327 326 326 325 324 323 322 322 322 322 321 321 321 321 321 321 321 321 321 320 320 320 321 321 322 321 322 322 322 321 321 322 323 322 321 321 321 321 322 322 322 323 323 324 325 325 325 326 327 328 328
326 323 318 317 317 315 314 314 313 314 313 312 315 314 315 319 316 320 332 327 318 317 317 329 344 342 333 331 333 333 330 328 328 326 326 326 324 324 323 322 321 321 321 322 321 320 320 320 320 320 320 321 320 320 320 320 320 321 321 321 320 321 322 322 322 321 321 321 320 319 319 319 319 320 320 319 320 321 321 322 323 323 324 326 326 326
320 324 326 322 317 315 316 315 314 314 312 313 317 315 315 317 316 319 321 318 320 322 322 336 345 339 333 332 331 331 330 327 326 325 324 324 323 322 322 321 321 321 321 322 321 320 320 319 319 320 320 320 320 319 320 320 320 321 321 320 320 321 321 321 320 320 319 319 318 318 318 318 318 318 318 317 317 318 318 319 321 321 322 323 324 325
323 326 328 328 326 325 321 318 318 316 313 314 316 316 315 313 315 319 315 312 319 321 324 338 343 337 333 332 330 330 328 326 326 324 323 323 322 321 321 321 321 321 321 320 320 321 320 319 319 320 320 320 319 319 319 320 320 320 320 320 320 321 320 319 318 318 317 317 317 317 317 317 317 317 317 316 315 315 316 317 319 320 320 320 321 323
322 323 323 326 330 330 323 317 317 317 314 314 314 315 316 315 316 319 317 317 323 329 334 337 338 337 334 332 331 329 327 326 326 324 323 322 321 321 321 320 320 320 319 319 320 320 321 320 319 319 319 320 319 319 319 319 320 320 320 320 320 319 318 318 317 317 316 316 316 316 316 316 316 316 315 315 314 314 314 315 316 318 319 319 319 319
323 321 320 323 324 324 321 317 318 319 317 315 315 315 315 317 317 317 320 327 330 334 339 336 334 336 335 332 331 328 326 326 325 324 323 322 321 321 320 320 319 319 318 319 319 320 320 321 320 319 319 319 319 319 319 319 319 319 319 319 319 318 317 317 317 317 316 316 316 315 316 315 315 314 314 313 313 312 312 313 314 315 316 317 317 316
329 324 321 321 321 321 320 320 322 322 321 319 319 319 318 319 320 317 321 328 326 328 336 335 333 335 334 331 329 327 325 325 323 323 322 320 321 320 319 319 319 318 318 318 319 320 321 320 320 319 319 319 319 319 319 319 319 319 319 319 317 317 316 316 316 316 316 316 315 315 315 315 314 314 313 312 312 311 311 312 312 312 313 314 314 313
328 329 325 321 320 322 324 325 324 323 324 326 327 329 329 328 325 320 322 330 332 333 336 335 333 335 332 329 327 326 324 323 322 321 320 320 320 320 319 319 318 318 318 318 319 320 320 320 318 318 318 318 318 318 318 318 318 318 318 317 316 316 315 315 315 316 316 315 315 315 315 314 314 313 312 311 310 310 310 310 310 310 310 311 312 312
328 329 327 325 326 324 325 327 327 328 328 329 332 335 337 338 335 332 335 340 341 339 335 333 334 335 331 327 325 324 323 322 321 320 320 320 320 320 319 318 318 318 318 318 319 319 320 319 317 317 318 317 317 317 317 317 317 317 317 316 315 315 314 314 315 315 315 314 314 314 314 313 313 312 312 311 310 309 309 309 309 308 308 309 309 310
331 330 327 330 330 327 327 327 328 332 331 331 337 335 334 339 339 337 339 339 337 335 334 334 335 332 329 326 324 324 323 322 321 320 320 320 319 319 319 318 318 318 318 318 319 319 319 318 316 317 317 316 317 316 316 316 316 316 316 315 314 314 313 313 313 314 314 314 314 313 313 313 312 311 311 310 309 308 308 307 307 307 307 307 307 307
328 332 330 330 328 328 331 331 331 334 332 332 334 329 327 333 334 333 337 338 335 333 332 333 332 329 326 325 324 324 323 322 321 320 319 320 319 318 318 318 318 318 318 318 318 317 316 314 313 315 315 315 316 316 316 316 316 316 315 314 313 313 313 313 313 313 313 313 313 313 312 312 311 310 310 309 309 308 307 307 306 306 305 305 305 305
326 329 328 328 329 331 333 334 333 332 329 329 328 324 325 330 330 329 333 335 336 335 332 330 329 326 324 324 324 324 323 322 321 319 319 319 318 318 318 317 317 318 317 317 316 314 312 311 312 313 314 315 315 316 316 315 315 315 314 313 313 312 312 312 312 312 312 312 312 312 311 311 310 309 309 308 308 308 307 306 306 305 305 304 304 304
328 329 327 328 332 332 331 333 333 330 327 327 327 325 326 327 326 326 327 329 332 333 330 328 326 325 324 323 323 322 322 321 320 320 319 319 318 318 318 317 317 317 316 315 314 313 311 311 312 312 313 314 315 315 315 314 314 314 313 312 312 311 311 311 311 311 311 311 311 310 309 309 308 308 308 308 307 307 307 306 305 304 304 303 303 302
328 330 327 326 328 329 329 330 330 328 326 326 326 325 325 327 327 326 326 328 328 328 327 326 325 324 323 322 322 321 320 320 320 320 319 318 318 318 317 317 315 314 313 313 312 311 310 311 311 312 313 314 314 314 314 314 313 313 312 312 311 311 311 311 310 310 309 309 309 308 307 306 306 306 306 306 306 306 306 305 305 303 303 302 302 301
326 326 326 325 325 328 329 327 325 326 328 328 327 327 327 329 330 327 325 327 328 325 325 325 324 323 322 321 320 318 318 318 319 319 318 316 317 316 315 313 312 311 310 310 310 310 310 311 311 312 313 313 314 314 313 313 313 312 312 311 310 310 310 310 309 309 308 307 306 305 304 304 304 304 304 305 305 305 305 304 304 303 302 301 301 301
326 323 325 325 325 327 329 326 325 328 330 328 328 328 327 328 329 326 324 326 326 324 324 324 322 321 320 318 318 318 318 319 319 318 316 314 314 313 311 310 309 309 309 309 309 310 310 311 311 312 312 312 313 313 312 312 312 312 311 311 310 310 309 309 308 308 307 306 305 304 303 303 302 302 302 303 303 303 303 303 302 301 300 300 300 300
327 326 327 328 327 326 328 328 328 329 327 326 326 327 327 328 327 324 325 327 325 323 322 322 320 319 318 318 318 318 319 320 319 317 314 312 311 310 309 308 308 308 308 308 308 309 309 310 310 311 311 312 312 312 312 312 311 311 310 310 309 308 307 307 306 306 305 304 303 303 303 303 303 303 302 302 302 302 302 302 301 301 300 300 299 299
327 325 327 329 328 327 329 329 328 327 326 324 325 326 328 329 326 325 328 328 323 320 321 320 318 318 317 318 319 319 320 319 317 315 312 311 310 309 308 307 307 307 307 307 307 308 308 309 310 310 310 310 311 311 311 311 311 310 309 308 307 306 305 304 304 304 303 303 302 302 302 302 302 302 302 302 302 302 302 302 301 301 301 301 301 300
324 322 325 327 327 328 330 329 326 326 325 324 323 324 325 326 326 327 329 326 320 319 319 317 316 317 317 317 317 317 316 315 313 312 311 310 309 308 307 307 307 306 306 306 307 307 307 308 308 309 309 309 310 311 311 310 310 309 309 308 306 305 304 304 304 304 303 303 302 302 301 300 300 300 300 301 301 301 302 302 301 302 301 301 301 301
323 323 324 324 324 325 327 327 325 324 323 322 322 322 322 325 328 328 324 319 317 318 317 315 315 316 315 314 313 313 313 312 311 311 310 309 308 307 306 306 306 306 306 306 306 306 306 306 306 307 308 308 309 310 310 309 309 309 308 307 306 305 304 304 304 304 304 303 303 302 299 297 297 298 298 299 300 301 301 301 301 301 301 300 300 301
325 325 325 323 322 324 324 325 326 324 321 320 322 322 323 325 326 322 317 316 316 316 315 315 315 313 312 311 311 311 311 311 310 310 309 308 307 306 306 306 306 306 306 306 306 305 305 305 305 305 306 307 307 308 307 307 307 306 306 305 305 304 303 302 302 302 302 303 303 301 298 296 296 296 296 297 298 299 300 301 301 302 301 300 300 300
324 325 326 323 320 323 325 324 324 323 321 321 322 321 321 322 321 317 316 316 315 314 314 313 313 311 310 310 311 311 310 310 309 308 307 306 306 305 305 306 306 306 306 306 306 305 304 304 304 304 304 305 305 305 305 305 305 304 304 303 303 303 302 301 300 299 300 302 302 300 298 297 297 296 296 296 296 296 297 298 299 301 301 300 299 299
322 322 323 320 317 319 323 322 321 320 320 320 319 318 317 317 316 315 315 315 314 313 312 311 310 310 310 310 310 310 309 309 308 306 305 305 305 305 305 305 306 306 306 306 306 305 304 304 304 304 304 303 303 303 303 303 303 303 302 302 301 301 301 300 298 297 298 300 300 299 299 298 298 297 297 297 296 296 296 296 297 298 299 299 299 299
320 318 318 318 317 318 319 319 319 319 319 317 317 316 316 315 315 314 313 313 313 312 310 309 310 310 309 309 309 309 308 307 306 305 305 305 305 305 305 305 306 306 306 306 306 305 304 304 304 304 304 304 303 303 303 302 302 302 302 302 301 301 300 300 299 299 299 299 299 299 299 299 298 298 297 297 297 297 296 296 296 296 297 298 298 298
317 317 317 318 318 318 319 319 319 319 317 316 315 315 314 314 314 313 312 311 311 310 309 309 309 309 308 308 308 308 307 306 305 305 305 305 305 305 305 305 306 306 306 306 306 305 305 305 304 304 304 304 304 303 303 303 303 302 302 301 301 301 301 301 301 300 300 300 300 300 300 299 299 298 297 297 297 296 296 296 296 295 295 296 297 298
320 318 317 317 317 318 318 318 318 318 317 315 315 314 313 313 312 311 310 309 309 309 309 308 308 308 308 308 307 307 306 306 306 306 306 305 305 304 304 305 305 306 306 306 306 305 305 305 304 304 304 303 303 303 303 303 303 303 302 302 302 301 302 302 301 301 301 301 301 300 300 300 299 298 297 297 297 296 296 296 296 296 295 295 296 297
320 319 317 316 316 316 317 317 317 318 318 316 314 314 312 311 310 310 309 309 308 308 308 307 308 307 307 307 306 305 305 304 304 304 305 305 304 304 304 305 305 306 306 306 305 305 305 305 304 304 303 303 302 302 302 302 302 302 302 302 302 302 302 301 301 301 301 301 301 301 300 300 299 299 298 297 297 296 296 296 296 296 295 295 295 295
317 316 315 316 316 316 317 317 317 318 317 315 313 311 311 310 309 309 309 308 307 307 307 307 307 306 306 306 305 304 303 303 302 302 303 303 303 303 304 304 305 305 305 305 305 305 304 304 304 304 304 303 303 303 302 302 302 301 301 301 301 301 301 301 301 301 301 301 301 301 301 300 300 299 298 298 297 297 296 296 296 295 295 295 295 295
316 315 316 316 316 316 316 316 316 316 314 313 311 310 310 309 308 308 308 307 307 306 306 306 306 306 305 305 304 303 303 302 302 302 302 302 302 303 304 304 304 305 304 304 304 304 303 303 303 303 303 303 303 303 302 302 302 302 302 301 301 301 301 300 300 301 300 300 300 300 300 301 300 300 299 298 298 298 297 296 296 295 296 296 296 295
Wind_Speed
5 5 6 5 6 6 9 9 9 11 12 12 7 6 9 8 9 10 8 14 13 9 9 11 11 12 10 5 7 8 14 16 15 14 12 11 11 11 12 11 10 8 6 9 12 14 18 14 6 9 16 17 16 16 15 15 14 14 15 15 13 11 9 8 9 8 8 8 7 7 6 6 7 8 9 10 10 12 13 13 14 15 16 17 17 16
5 6 7 6 7 7 9 10 11 13 12 12 8 5 7 7 10 12 8 16 14 8 8 9 10 11 11 8 9 7 14 17 15 15 13 12 12 10 12 12 10 7 6 8 10 11 16 16 11 10 14 16 16 15 15 13 14 15 15 14 13 12 11 9 9 9 9 9 9 8 7 6 6 8 11 12 13 13 13 14 14 14 16 17 16 16
6 6 8 8 8 8 9 10 13 15 12 9 7 5 5 6 9 10 8 18 15 6 7 10 9 9 10 9 10 10 14 15 16 17 15 15 14 11 11 12 10 9 8 7 8 11 14 14 13 12 13 15 15 15 14 13 14 15 14 13 12 13 11 10 9 9 9 9 9 7 6 6 6 7 8 9 10 10 12 13 14 14 16 17 16 15
6 6 9 10 9 10 11 11 12 13 10 7 6 4 5 8 8 6 7 18 15 6 6 9 9 7 6 7 10 12 15 14 17 18 15 15 15 13 12 11 11 11 10 9 8 9 11 12 11 11 12 13 14 15 14 14 14 14 13 12 11 11 10 9 9 8 8 7 7 6 5 4 4 5 5 7 8 9 11 12 14 15 15 16 16 13
6 6 10 11 12 13 12 11 11 9 6 7 7 6 7 10 10 5 9 16 11 7 4 7 7 6 3 8 8 9 13 15 17 17 14 12 12 13 12 11 11 10 9 9 7 6 7 8 8 9 10 12 14 14 13 12 13 12 11 11 10 9 8 7 6 6 6 5 5 5 5 3 3 4 5 8 10 10 11 13 16 16 15 15 14 13
7 9 13 14 13 14 12 11 11 8 5 6 7 9 12 14 13 5 8 10 6 5 4 6 6 6 3 9 9 9 11 13 15 16 15 13 12 12 11 9 9 8 7 7 6 6 6 6 6 7 9 13 15 13 12 12 12 11 9 9 8 7 6 5 5 5 5 5 5 6 6 5 4 4 5 7 8 8 10 12 15 16 13 13 14 16
7 10 14 15 13 14 13 10 11 9 5 4 5 9 14 15 14 7 3 4 4 6 6 6 6 3 2 6 9 13 14 13 14 15 15 13 12 11 10 9 8 6 6 6 6 6 6 5 5 7 10 14 15 13 11 12 12 11 9 8 6 5 4 3 4 4 4 4 3 3 3 2 1 3 4 7 8 10 11 11 13 13 10 10 14 18
9 12 14 16 14 12 11 8 10 9 6 4 6 10 12 12 13 9 4 4 5 5 4 5 6 2 2 5 8 14 16 15 15 15 14 13 12 11 9 8 7 7 6 5 6 6 5 6 8 11 13 14 14 11 10 10 9 9 8 7 6 6 5 3 2 2 1 1 1 3 3 4 4 4 6 8 10 12 12 12 13 13 11 12 14 18
10 13 12 15 13 9 8 8 9 9 6 5 8 10 9 9 9 8 6 4 7 5 3 5 5 3 2 5 6 13 16 16 16 16 14 13 12 11 9 8 8 9 7 6 7 6 7 10 11 13 13 13 12 11 11 10 8 7 8 7 6 6 6 4 4 3 5 5 5 6 6 6 7 7 8 9 11 12 12 13 15 14 14 15 17 18
9 12 11 13 11 8 7 9 10 10 7 5 10 11 7 7 7 5 5 1 5 6 5 7 5 4 2 4 6 10 13 13 13 13 13 12 12 12 11 9 9 8 7 7 8 8 10 11 12 12 12 12 12 12 12 10 7 5 5 4 3 4 6 7 6 7 8 9 8 8 8 8 8 8 9 10 11 12 13 14 15 15 15 16 17 17
8 11 11 9 9 9 8 9 11 12 8 7 10 10 7 7 4 3 4 2 3 2 5 8 8 6 3 4 5 6 10 16 14 11 12 12 13 13 11 10 8 6 6 7 8 9 11 13 13 13 13 13 14 13 12 10 8 7 7 7 7 7 9 9 10 11 12 12 12 12 12 11 11 11 10 11 12 12 13 15 15 16 16 16 16 16
9 10 9 6 7 11 10 9 10 12 9 6 7 6 4 5 2 1 3 4 3 3 5 6 8 7 4 3 4 4 7 19 20 17 17 16 14 13 11 10 8 6 7 8 7 7 9 12 13 14 15 14 15 14 13 12 10 11 12 13 14 13 12 12 12 12 14 14 14 14 14 15 15 14 14 14 14 15 16 16 17 18 18 18 18 18
8 7 9 7 6 9 10 7 6 8 8 6 5 5 4 3 1 2 2 1 2 4 6 7 7 6 4 1 7 4 7 15 18 18 19 18 16 14 12 11 8 7 8 8 7 6 5 7 10 12 13 13 15 15 13 13 11 12 13 14 16 16 15 15 14 13 15 15 16 15 15 15 15 16 16 17 17 17 17 17 17 18 19 20 21 21
6 6 9 11 6 7 9 7 6 6 6 7 7 5 5 3 3 3 2 2 3 4 7 10 8 4 2 3 7 4 13 14 14 16 16 16 16 14 12 11 10 8 8 7 7 6 5 7 9 11 11 13 14 14 13 13 11 10 12 13 15 16 16 16 15 15 15 16 16 15 15 15 15 16 16 17 18 18 17 18 18 18 18 20 21 21
6 5 8 11 5 6 9 7 7 7 5 7 7 5 4 4 4 3 3 3 4 5 6 8 6 2 2 3 6 7 15 15 15 15 14 14 13 13 12 12 10 9 7 7 7 7 7 9 10 11 12 12 13 13 12 11 10 10 11 13 15 15 16 17 17 16 16 15 15 15 15 15 16 16 17 17 18 17 18 19 18 18 19 20 21 21
7 5 7 10 7 6 9 5 6 8 6 4 4 6 5 4 4 3 4 6 4 4 3 3 2 2 3 3 6 8 13 14 15 15 16 15 12 12 11 10 10 9 7 7 7 8 8 10 12 12 12 13 13 13 11 10 10 11 11 12 14 14 15 15 16 16 16 16 15 16 16 16 16 17 18 18 17 18 18 19 18 18 20 21 22 22
6 5 6 10 8 10 11 8 5 6 5 3 3 5 5 5 4 3 4 5 4 2 2 3 4 3 4 3 5 8 11 11 12 13 15 15 13 12 10 9 9 8 8 7 7 7 9 11 11 11 12 12 11 11 11 11 11 11 11 11 12 12 13 15 15 15 16 16 16 17 16 16 16 17 18 18 18 18 18 18 18 18 20 22 22 22
5 3 6 11 9 9 10 7 6 2 4 4 4 5 3 4 5 3 3 3 4 2 1 4 7 7 5 2 2 6 8 9 10 11 13 13 12 12 9 9 9 8 8 8 8 9 10 11 11 12 12 10 9 11 11 12 12 11 10 10 10 11 14 15 14 14 15 16 17 18 17 16 16 17 18 18 19 18 17 18 19 19 20 22 22 22
4 2 4 10 9 6 8 5 6 7 6 5 3 4 4 5 5 2 4 4 5 3 0 3 7 7 5 5 9 11 10 10 10 11 12 12 11 10 9 9 9 8 8 7 7 7 9 10 10 11 10 9 10 12 13 13 12 9 7 8 10 13 15 15 15 16 17 17 17 16 16 16 16 17 18 18 18 18 19 20 20 20 21 22 22 22
4 3 2 8 8 7 6 5 6 8 9 7 3 4 5 5 4 3 4 4 5 4 3 3 2 3 2 6 12 14 14 15 13 11 11 11 11 10 8 8 8 8 6 6 7 7 8 9 9 9 10 10 10 11 11 11 11 10 9 10 12 14 16 16 17 19 18 17 16 16 17 18 19 19 19 19 19 19 20 20 20 21 22 22 22 21
2 4 0 5 6 9 5 6 9 8 7 6 3 4 6 4 4 4 3 3 5 4 4 3 1 3 0 2 8 10 11 12 13 12 12 12 12 10 8 8 8 7 6 6 6 6 7 7 8 10 10 8 8 9 11 11 10 9 9 11 15 17 18 18 19 18 17 16 17 18 20 21 21 21 21 21 21 21 22 21 21 22 22 22 22 21
2 3 3 4 4 7 5 6 10 9 8 7 4 4 6 5 6 4 3 2 4 4 5 5 3 4 3 2 4 8 10 10 11 12 12 11 12 10 8 8 8 8 7 6 6 6 6 7 9 10 8 6 7 11 13 12 10 10 12 15 19 19 19 18 18 17 16 16 18 19 21 22 22 22 22 22 23 23 23 23 23 23 22 22 22 20
4 4 5 4 3 5 6 7 10 9 8 8 6 6 5 4 5 5 3 4 2 3 4 5 3 2 3 3 5 9 10 11 11 12 12 11 11 11 9 9 9 9 8 7 6 5 6 8 11 11 8 8 11 12 13 12 12 14 17 19 20 18 16 15 16 16 16 17 19 20 21 22 23 23 23 24 23 23 23 23 23 24 24 23 22 21
5 3 4 3 3 3 7 7 8 9 7 6 7 7 5 5 5 6 5 3 2 4 4 4 2 1 2 4 9 11 11 12 10 11 13 11 9 10 10 10 9 9 8 7 5 5 6 9 10 9 8 11 13 13 12 12 13 15 18 19 18 15 12 13 16 18 18 19 20 21 21 22 23 24 25 24 23 22 22 21 22 23 25 24 22 22
4 2 4 3 1 2 6 6 6 9 8 4 3 6 6 5 4 5 3 1 0 4 4 5 1 2 4 6 10 13 13 12 10 11 12 11 9 10 9 9 9 8 7 6 5 4 6 8 7 7 9 12 13 12 11 13 14 16 17 17 16 14 14 16 19 21 21 21 22 22 22 23 24 25 25 24 23 22 21 21 21 21 23 25 23 22
4 3 5 5 4 5 6 4 3 5 5 2 1 4 8 8 5 4 3 2 3 4 2 5 4 4 7 10 12 13 13 13 12 12 11 11 11 10 8 8 7 7 7 6 6 5 5 6 6 7 10 12 12 13 13 14 15 17 17 16 17 18 20 21 22 23 23 22 22 22 22 23 24 24 24 23 23 22 22 22 21 21 22 25 25 24
3 2 5 6 5 5 4 2 2 5 3 5 4 4 5 9 8 5 4 5 6 1 3 4 11 12 10 11 12 12 14 13 12 12 11 11 11 10 9 8 7 8 7 6 6 5 4 5 5 7 9 13 14 15 15 14 15 16 16 18 20 22 24 24 23 23 22 21 21 22 23 23 23 24 23 23 23 23 23 23 23 23 24 25 26 26
4 1 5 7 4 4 3 3 1 5 2 5 7 7 6 8 10 7 4 5 6 5 2 5 15 17 13 13 13 14 15 14 12 12 11 10 10 9 9 9 10 9 7 6 5 3 3 3 4 6 10 13 14 15 16 15 14 15 17 21 24 24 23 24 23 22 21 21 22 23 22 23 23 24 22 22 23 23 24 24 24 25 25 25 25 25
6 1 3 6 4 5 1 3 5 6 3 3 3 6 7 7 10 11 8 5 5 5 6 12 16 17 15 14 14 14 14 14 13 12 11 11 11 11 11 11 11 9 8 7 5 4 4 3 3 7 10 12 14 15 14 12 12 15 20 24 26 24 24 24 23 22 22 23 23 22 22 22 23 23 22 23 24 24 24 24 25 27 27 27 26 26
6 1 2 4 3 5 3 5 7 8 6 6 6 4 5 6 7 10 8 5 5 6 12 16 13 10 11 12 13 12 12 12 12 11 11 12 12 12 11 11 11 9 8 7 5 4 4 3 5 9 11 13 14 13 12 14 18 21 24 26 26 24 24 25 24 23 22 23 24 22 22 22 22 22 23 24 24 25 25 25 26 27 28 28 28 28
5 0 2 4 2 4 4 5 5 6 6 5 6 9 10 9 6 3 3 7 9 9 14 17 11 6 8 11 13 12 11 12 12 12 11 11 12 12 12 12 11 10 8 7 6 5 4 3 7 10 12 14 14 14 16 19 23 26 27 27 26 24 24 25 25 23 23 23 23 22 22 22 22 22 23 24 24 25 26 26 27 27 27 28 29 29
4 1 1 5 4 3 5 5 4 6 7 6 7 10 11 8 5 3 2 4 9 15 17 15 9 5 8 13 13 12 12 13 13 13 11 10 10 11 12 13 12 10 8 7 5 4 3 4 6 7 11 14 15 18 20 21 23 27 27 26 25 25 26 26 25 24 24 23 23 23 23 22 22 23 23 24 25 26 26 27 28 28 28 28 29 30
4 4 2 5 4 3 6 6 5 6 6 5 3 5 6 6 7 7 7 6 7 16 16 10 9 10 13 16 15 14 14 13 12 11 10 10 11 11 12 12 11 10 8 6 5 5 5 6 8 10 13 15 16 19 20 21 25 27 26 25 25 26 26 26 25 24 24 23 23 24 23 22 22 23 24 24 25 25 27 29 30 29 29 28 28 30
5 6 4 4 5 1 6 6 6 4 0 4 2 3 3 3 7 8 6 7 5 6 8 8 11 15 16 17 17 16 14 12 11 10 9 10 10 11 11 11 11 10 8 6 6 7 9 11 12 13 15 15 17 19 20 23 27 28 26 26 26 26 26 24 24 25 24 24 24 23 23 22 23 24 25 25 25 26 27 28 28 28 28 28 29 31
5 6 3 2 5 1 3 5 4 2 4 3 3 4 2 5 10 9 7 7 8 9 14 15 14 15 15 15 15 15 13 11 10 9 9 10 10 11 11 10 9 10 8 8 7 8 11 13 14 16 16 13 16 21 22 25 28 28 28 28 27 25 24 23 23 24 25 25 25 24 23 23 24 25 26 26 27 28 28 28 28 27 27 28 30 30
5 4 3 3 4 2 2 4 2 4 3 2 3 4 2 6 10 6 8 9 9 10 15 17 14 14 15 15 14 14 13 12 9 6 7 10 11 10 10 9 9 9 9 10 10 10 12 12 14 18 18 15 19 24 25 26 28 28 28 27 26 25 23 23 24 25 25 26 25 25 24 24 25 25 25 25 26 27 27 27 27 27 27 29 30 31
4 3 2 3 3 3 3 2 1 1 3 2 1 1 2 3 6 4 1 4 6 7 12 15 15 15 15 15 15 15 15 14 9 6 5 9 11 11 11 12 13 12 13 15 15 14 13 12 14 18 19 20 23 25 26 28 28 29 28 26 25 24 24 25 25 25 26 27 26 26 26 26 27 27 27 27 28 27 26 26 25 26 27 30 31 32
5 2 2 3 1 2 5 3 1 1 2 3 3 3 3 2 5 8 3 3 3 4 10 14 15 15 15 16 16 16 15 13 8 4 5 10 12 13 13 16 18 18 16 16 16 15 15 15 16 18 20 24 25 25 27 28 29 29 27 24 23 24 25 26 25 25 26 26 26 26 26 26 28 29 29 30 30 29 28 27 27 26 28 30 32 31
6 3 3 4 2 2 5 3 2 2 3 4 2 4 3 2 4 8 4 2 2 2 7 12 14 14 15 16 17 16 13 10 7 4 5 9 12 12 12 14 18 19 18 17 17 17 17 17 18 19 21 24 25 26 27 28 28 29 26 24 25 26 26 26 26 25 26 25 26 26 26 26 27 27 27 28 27 27 27 27 27 27 29 31 32 32
5 3 3 4 3 3 4 2 1 1 2 2 3 1 2 1 3 7 3 5 5 5 7 12 14 13 13 14 14 11 9 9 9 6 7 10 12 13 14 15 16 18 18 18 18 18 18 18 19 20 20 21 22 25 27 28 29 28 26 25 26 27 27 27 27 27 27 27 28 28 28 28 27 26 25 25 24 24 24 24 24 25 27 29 30 32
2 1 2 4 4 4 4 3 0 2 2 1 3 5 5 2 2 4 5 5 8 10 8 10 13 12 11 10 7 4 5 8 11 10 10 11 12 13 16 18 18 19 19 19 18 18 19 19 20 21 20 19 20 24 26 27 26 25 25 25 26 26 25 25 25 26 27 27 28 29 28 27 26 25 25 24 24 24 25 24 24 24 25 26 27 29
3 2 2 3 2 2 3 3 1 2 1 1 3 6 4 2 1 3 3 6 12 13 10 10 11 10 9 7 6 7 9 12 13 12 12 12 10 11 14 16 16 17 19 20 19 20 22 22 23 23 21 21 23 24 25 26 25 24 24 24 25 25 24 23 23 23 24 25 26 28 28 28 27 26 26 25 25 26 26 26 27 27 26 26 27 27
3 3 3 2 2 2 3 2 2 1 1 1 4 4 1 3 4 4 6 8 10 11 11 10 9 8 8 8 10 13 14 13 13 12 12 11 10 12 14 15 15 16 19 20 20 21 24 24 23 23 22 22 23 24 24 26 26 26 25 25 24 24 24 24 24 24 24 26 28 29 30 31 30 30 30 29 29 28 28 27 27 27 27 28 28 27
1 1 2 2 1 1 3 2 2 2 3 2 1 0 1 1 3 6 9 9 8 8 9 8 7 8 10 11 13 14 14 13 12 12 12 12 11 12 14 15 16 16 18 19 20 22 24 24 23 23 23 21 22 23 23 25 25 25 25 24 23 23 24 25 25 25 26 27 28 28 29 32 33 33 34 34 34 34 32 30 29 28 28 28 28 27
1 2 4 2 0 1 3 3 3 2 1 3 5 5 5 7 8 8 9 9 8 7 6 6 8 10 11 13 14 13 13 12 12 11 12 12 11 12 13 15 17 19 20 21 22 23 24 24 23 23 22 21 21 22 22 23 24 25 24 23 22 23 24 25 27 29 30 29 28 27 27 30 32 34 35 35 36 36 35 33 32 30 28 28 28 28
2 4 4 4 3 3 4 2 1 3 6 7 7 7 7 9 9 9 10 8 6 7 7 7 9 11 12 13 14 12 11 12 13 12 11 11 11 12 15 17 17 19 21 22 22 23 24 23 23 23 22 21 21 21 21 22 23 24 22 21 21 22 23 24 25 27 29 29 28 28 27 27 28 30 33 35 36 36 35 35 35 33 30 29 28 27
2 3 3 4 4 2 2 1 1 5 7 8 8 8 9 9 8 8 9 8 7 9 9 9 10 12 11 12 13 13 13 13 14 13 11 9 9 11 15 16 16 18 21 22 23 24 23 23 22 21 21 21 20 21 21 21 22 23 22 21 20 21 21 21 22 22 23 25 26 27 27 27 26 27 30 32 34 36 36 37 37 37 35 31 28 25
3 2 5 5 3 3 2 2 3 7 7 7 8 7 7 8 9 9 9 9 10 10 9 10 11 11 10 10 12 14 14 12 12 12 10 7 8 11 14 16 18 20 21 22 23 23 22 22 21 21 21 21 21 21 22 21 21 20 20 20 20 20 20 19 19 19 20 20 22 24 25 26 26 27 29 31 32 34 34 35 36 37 36 33 30 26
2 4 5 5 5 5 3 4 5 7 7 6 8 8 8 9 10 10 11 11 11 11 11 11 11 10 11 11 11 13 14 11 10 11 10 8 9 11 13 16 19 20 20 21 24 23 22 22 22 22 22 21 21 21 22 22 21 20 19 18 18 19 21 21 21 22 21 19 19 20 21 23 24 26 27 29 30 31 32 32 33 34 34 33 33 30
4 4 4 6 6 3 3 5 6 6 5 5 7 10 11 11 11 11 11 11 11 11 12 12 11 12 13 14 14 13 13 11 11 13 11 9 11 13 15 17 18 18 18 21 24 23 22 22 21 21 21 21 20 20 21 21 21 20 19 19 19 20 22 22 22 22 22 21 19 17 17 18 21 22 24 26 27 28 29 30 31 32 33 33 33 32
3 2 4 5 5 4 6 6 5 6 6 7 9 10 10 11 11 11 10 11 11 11 11 12 13 12 12 13 16 16 14 13 16 15 12 12 15 17 17 16 15 16 19 23 25 25 23 22 20 20 21 21 21 22 22 22 22 21 20 20 20 21 21 22 21 21 22 22 22 19 17 15 15 16 19 21 23 24 26 27 28 29 30 31 31 31
Wind_Direction
181 201 217 201 198 188 199 219 233 237 241 243 230 195 208 217 244 252 193 174 183 187 209 203 195 223 235 230 223 180 137 137 139 128 126 127 129 131 131 127 115 108 103 108 117 122 121 125 146 134 127 130 131 134 136 137 140 139 139 140 140 143 145 147 155 168 180 183 191 204 219 233 246 258 250 240 242 248 254 256 253 252 248 244 243 243
181 200 215 202 201 201 202 214 235 247 250 252 259 250 231 216 231 249 199 169 183 190 203 203 185 213 230 202 205 178 127 136 137 127 130 127 125 130 126 121 115 112 108 111 119 124 124 130 152 152 132 131 134 137 141 142 142 142 141 139 138 145 152 154 159 169 175 182 189 191 201 216 233 246 241 237 241 247 251 249 249 251 248 243 243 242
203 213 205 199 204 217 220 213 223 243 252 253 262 268 264 247 234 249 197 170 182 195 199 201 190 217 228 192 183 157 133 141 138 132 137 132 131 134 127 122 119 119 122 126 130 136 141 144 149 148 135 134 137 137 140 141 140 139 137 138 141 147 152 154 158 167 177 190 202 203 212 224 228 231 233 237 242 251 254 250 250 250 245 243 245 247
201 210 197 199 204 214 227 222 219 235 246 247 250 247 265 259 245 253 184 172 180 189 178 181 194 237 238 179 169 150 139 140 130 127 133 133 136 136 129 127 127 132 140 144 137 135 143 144 142 142 138 137 139 137 137 142 145 143 139 140 145 147 153 160 163 171 182 193 205 212 224 242 252 248 244 248 248 253 257 258 258 250 244 248 251 254
195 190 192 204 208 210 223 227 222 225 237 244 236 232 255 258 256 245 171 167 175 201 180 143 180 257 235 162 161 139 135 134 127 124 123 125 129 126 125 130 136 144 149 143 130 113 118 125 129 135 135 132 130 130 130 135 141 140 135 136 140 144 153 163 168 177 184 182 184 194 205 211 234 246 247 254 257 260 263 263 262 257 254 258 258 258
205 188 189 206 210 208 216 225 223 214 222 246 236 231 245 257 267 257 158 151 145 218 232 125 159 263 229 157 146 128 134 132 125 125 123 123 126 126 126 133 143 144 130 120 116 106 105 110 116 122 121 113 104 102 105 108 117 121 121 130 139 146 155 162 170 180 184 184 186 195 204 205 221 246 261 271 278 289 285 274 271 268 264 265 263 260
218 198 186 199 207 207 213 222 224 212 204 237 235 230 241 253 267 277 180 151 139 209 222 131 139 248 210 161 149 138 138 131 123 124 128 131 133 131 129 137 147 128 97 96 102 97 99 109 114 105 100 97 89 87 93 92 95 99 99 105 111 117 139 167 183 189 191 199 210 213 211 204 271 285 302 311 312 315 311 303 294 283 273 276 270 263
210 211 189 191 203 207 211 217 217 207 199 229 242 237 239 246 258 273 266 210 178 192 206 153 137 129 176 202 165 132 122 123 123 127 132 132 131 130 131 138 130 105 88 94 96 90 93 99 99 93 88 89 87 85 86 80 79 79 70 70 71 67 73 84 99 107 87 50 15 14 17 20 11 349 342 338 326 324 324 324 321 309 296 300 295 282
197 217 197 184 197 208 208 208 208 209 207 224 247 249 245 243 251 267 271 219 169 153 194 201 161 125 236 239 176 127 120 131 135 136 135 124 123 125 123 117 101 97 100 103 104 103 99 93 90 91 89 88 87 81 73 65 60 55 48 51 52 45 45 44 48 42 23 18 16 19 22 18 12 360 350 341 330 329 331 330 333 330 316 314 316 307
192 216 208 184 191 204 204 203 204 215 216 208 241 258 264 254 249 254 265 236 134 142 188 213 179 146 244 242 174 141 134 143 142 135 127 116 118 119 114 108 100 105 111 108 109 105 99 97 95 95 89 84 84 81 78 70 58 55 43 30 29 43 52 49 43 37 29 22 17 15 14 6 360 349 338 334 332 335 338 335 336 336 329 321 320 317
201 205 218 203 189 188 196 207 205 217 213 183 224 255 276 270 256 245 263 68 95 192 210 200 173 163 237 242 183 169 152 146 138 127 121 117 117 117 114 114 114 120 117 105 101 95 93 94 93 90 82 77 80 82 82 75 60 51 40 34 46 57 56 47 36 33 30 27 25 23 20 16 11 2 352 347 347 347 346 343 341 341 339 333 328 325
223 199 214 223 191 176 186 208 205 213 214 187 210 227 260 290 293 273 321 59 94 260 237 192 166 169 213 240 252 261 163 146 141 139 136 130 123 120 120 123 128 128 113 102 95 91 90 87 83 80 75 72 74 75 71 66 56 46 45 48 49 48 43 33 26 26 25 23 23 23 22 22 21 16 10 4 0 357 352 348 348 346 344 339 333 326
238 212 207 216 208 179 181 199 200 209 211 204 213 178 176 273 237 203 296 80 163 237 222 180 170 196 176 192 299 307 134 137 136 137 136 131 125 121 119 120 122 118 110 106 100 94 83 78 77 75 74 70 70 70 63 57 52 43 42 44 41 39 37 32 29 28 25 24 23 21 20 20 18 16 14 10 6 2 358 354 352 348 343 338 333 327
238 242 212 207 213 192 186 184 185 203 200 200 211 161 151 191 189 204 211 163 196 221 202 174 175 225 120 44 330 55 112 116 115 119 121 120 119 117 114 113 112 110 110 109 104 96 81 80 81 79 78 74 71 70 62 55 49 40 37 37 36 35 34 31 29 26 22 22 22 20 18 16 13 12 12 10 6 5 2 357 352 347 345 342 339 334
207 235 212 198 193 187 194 186 168 176 184 203 203 163 165 181 165 184 169 160 208 207 186 168 168 290 34 11 344 68 101 103 104 108 106 106 110 111 110 109 108 106 106 105 104 99 91 87 83 78 78 75 72 69 63 56 46 41 38 33 32 34 32 29 27 25 20 17 18 18 15 11 9 9 9 8 5 4 360 355 352 350 349 348 343 338
200 226 209 187 176 183 201 202 156 158 184 214 187 164 195 200 153 163 177 166 175 180 169 147 113 39 70 40 19 69 92 97 104 109 110 111 111 110 109 110 111 110 109 110 108 101 96 91 85 80 76 73 73 72 68 61 53 49 42 36 36 36 33 30 29 27 22 18 18 17 13 8 8 7 6 4 5 5 360 356 355 352 350 349 345 341
190 229 203 174 185 200 199 207 181 153 174 200 197 190 206 204 165 139 189 168 116 132 198 120 96 101 107 59 46 83 92 97 105 108 113 117 116 112 112 114 115 116 118 117 115 110 104 99 94 90 84 78 79 79 75 70 64 57 49 44 39 37 38 36 33 29 23 22 23 20 15 11 9 7 3 2 4 4 1 359 357 353 352 351 347 343
171 216 200 181 199 197 174 198 236 218 170 171 196 209 203 219 209 132 140 168 118 143 239 118 134 156 157 154 138 115 103 107 111 110 113 113 112 112 113 116 118 119 121 115 109 105 98 94 94 93 89 84 85 84 78 70 66 65 58 47 38 41 46 41 33 31 29 28 25 20 15 11 9 7 4 6 8 7 6 4 0 358 357 353 348 344
173 169 213 200 204 171 137 167 258 269 238 206 195 193 171 201 230 170 144 174 155 163 220 114 150 175 172 169 165 153 144 134 121 115 114 109 110 112 111 113 110 107 107 100 95 93 86 82 86 92 91 87 85 81 73 67 67 72 65 50 47 50 50 44 39 37 34 30 25 19 14 13 14 12 10 13 13 11 11 9 7 5 1 356 352 348
171 122 271 228 195 156 139 163 214 244 244 244 265 233 199 187 195 181 170 167 149 168 182 137 168 228 199 177 174 164 155 145 134 127 120 114 116 115 113 114 107 102 98 93 92 87 84 82 79 84 87 84 86 85 79 73 72 74 66 59 60 56 51 48 42 36 34 30 26 23 21 21 22 20 18 20 19 17 15 13 12 9 4 1 359 356
159 124 286 262 188 160 169 188 197 211 223 232 246 229 225 207 175 189 223 174 142 158 169 136 214 257 335 185 181 156 140 137 131 126 122 120 121 118 119 121 112 106 100 95 96 89 95 104 93 89 92 94 104 106 94 83 75 72 68 67 67 60 55 50 41 35 35 34 30 28 29 29 29 29 29 30 29 27 23 20 17 13 10 8 7 5
159 141 184 262 216 179 182 183 189 199 205 204 204 213 216 198 164 170 261 227 138 147 158 139 184 248 330 333 166 132 123 123 117 117 120 121 123 120 119 118 109 105 103 100 100 97 114 132 119 111 115 121 121 111 97 86 73 62 64 68 66 60 56 50 43 39 38 38 35 34 33 33 34 35 36 35 33 30 26 25 22 19 17 15 14 15
139 128 185 233 257 204 190 187 189 199 213 213 222 223 195 176 157 142 199 226 183 186 169 129 144 239 342 23 106 109 116 121 120 123 123 121 123 119 113 111 104 103 105 101 103 122 150 142 131 135 139 115 102 99 95 88 74 63 67 68 63 59 59 56 51 46 43 43 40 36 32 31 32 34 34 32 30 28 24 22 21 21 21 19 20 25
142 124 165 202 296 236 200 199 191 195 217 229 233 227 191 185 175 148 168 188 173 210 178 114 102 142 49 74 106 110 114 117 119 123 121 121 121 114 112 112 109 110 115 118 131 158 156 131 124 137 134 107 95 93 92 88 80 74 74 71 64 61 65 63 56 50 49 48 42 35 32 32 32 32 31 28 26 24 21 20 23 24 23 22 26 32
184 146 126 135 271 210 191 200 195 196 211 219 232 234 220 205 169 149 179 136 354 236 173 115 122 150 112 106 108 111 114 115 118 122 121 121 118 115 117 120 122 124 127 136 144 136 116 107 108 115 115 111 105 99 91 85 82 81 79 73 65 61 65 65 58 53 51 48 42 38 36 35 34 32 31 27 23 22 21 21 25 27 25 25 28 32
182 148 118 136 170 186 188 203 189 183 208 227 289 260 237 224 194 151 167 202 240 252 109 110 136 133 124 121 114 117 123 124 127 128 124 123 122 124 128 130 127 119 111 111 106 96 100 115 131 133 125 119 110 99 91 85 84 84 81 73 64 63 66 63 56 52 49 45 41 40 38 37 36 34 32 30 26 26 28 28 31 34 34 34 33 35
135 137 146 144 161 187 195 235 136 119 170 235 253 281 257 234 224 172 142 204 209 143 45 134 143 136 140 138 130 134 136 133 135 133 128 128 128 129 131 124 112 102 97 95 92 95 120 138 151 150 133 121 114 104 97 92 90 89 84 77 72 71 69 62 55 52 50 47 45 43 41 40 39 37 35 32 31 32 34 36 39 41 44 46 44 40
93 132 178 155 171 216 225 272 311 80 97 239 243 259 267 252 239 213 171 197 176 105 53 170 145 140 155 157 147 148 145 140 142 138 133 134 132 130 126 116 108 105 103 104 111 133 162 176 174 147 128 122 121 114 106 101 98 96 89 82 77 74 69 64 59 55 52 50 48 44 44 45 42 40 38 35 35 37 38 40 43 45 48 52 51 46
101 104 202 161 205 261 299 340 354 30 24 312 281 263 273 278 248 226 206 189 162 133 162 175 159 151 159 159 151 150 146 140 138 135 133 134 130 126 122 117 115 116 118 128 148 167 181 203 160 127 119 114 113 113 110 104 99 95 87 81 77 73 70 67 61 57 55 53 48 45 46 47 44 41 39 37 38 40 42 43 46 48 50 51 53 52
97 41 301 140 199 282 29 49 20 22 23 14 14 353 341 337 283 244 218 154 122 133 151 156 153 144 147 148 142 139 135 130 130 132 135 137 133 129 127 123 122 124 131 144 158 169 183 175 120 110 105 98 97 102 100 85 80 84 83 79 76 72 69 68 62 57 57 55 49 46 48 49 46 42 41 40 40 41 44 48 50 49 49 50 53 54
80 234 314 84 79 323 19 51 30 31 39 28 13 4 3 3 343 276 183 112 96 106 127 131 123 108 127 130 126 126 127 126 130 134 137 137 135 134 131 126 125 130 137 151 161 168 177 148 119 114 109 103 95 88 85 79 78 84 84 79 76 72 69 67 61 56 57 57 53 49 50 50 47 44 44 44 43 44 47 50 52 51 49 50 52 52
73 144 354 66 68 340 4 30 30 37 33 20 10 3 355 354 1 10 60 95 119 125 123 123 124 130 135 127 122 126 129 131 135 137 138 138 137 136 132 129 132 137 143 154 157 143 127 110 100 100 108 110 101 90 84 81 84 88 86 81 77 73 69 66 61 58 58 57 55 53 53 52 49 48 49 48 49 49 49 52 53 52 51 50 49 50
88 115 95 89 100 321 340 14 48 56 28 348 345 4 345 338 354 5 19 36 113 135 136 144 154 150 141 134 132 136 137 138 143 143 142 142 137 132 129 130 136 140 144 145 121 88 72 56 49 66 85 90 92 94 89 85 89 91 88 84 79 73 69 66 62 59 59 57 56 55 55 53 51 50 52 52 52 51 50 51 52 51 51 51 50 49
89 109 122 121 116 297 317 6 49 77 336 268 275 16 340 357 24 15 20 38 62 106 110 126 142 143 143 140 139 141 142 143 146 145 142 139 135 131 132 136 139 139 135 119 94 73 55 43 42 59 71 73 82 92 91 88 91 90 86 82 78 73 71 68 63 59 58 58 58 56 55 54 53 54 55 55 54 53 51 50 49 49 50 50 50 50
88 100 96 96 103 100 335 33 63 191 234 264 331 358 343 89 68 25 358 40 70 96 103 112 131 139 138 135 132 132 133 130 131 133 133 132 130 131 134 134 128 123 116 101 89 73 60 53 48 49 49 58 78 84 84 89 90 87 83 80 77 75 73 71 65 61 59 58 57 57 56 56 56 57 57 57 56 55 53 51 49 49 50 51 51 50
114 111 85 86 103 102 59 77 136 225 266 330 6 356 346 93 79 26 342 24 62 108 121 123 132 133 126 125 123 120 117 107 92 88 115 126 127 126 126 119 107 102 99 98 96 87 75 66 57 51 48 63 83 83 83 87 88 85 83 80 78 77 75 71 68 65 62 60 59 59 58 58 59 59 58 57 57 54 52 51 50 49 51 53 54 53
109 118 105 109 117 115 115 125 162 314 323 322 328 255 239 130 102 102 317 5 42 96 124 128 130 130 126 123 121 118 112 103 84 56 76 103 108 106 104 103 101 98 96 97 98 97 93 83 70 64 64 72 81 86 87 87 86 85 83 81 80 78 75 73 72 69 67 64 63 63 62 62 63 63 61 61 60 58 57 55 53 52 52 54 55 54
90 106 140 139 148 108 109 116 62 43 273 250 209 198 221 190 126 116 104 336 360 102 133 135 132 132 130 126 126 124 115 107 105 99 94 98 100 100 101 102 103 103 101 103 104 103 100 94 84 78 76 74 79 87 91 89 88 87 84 82 82 79 76 74 73 72 70 67 66 66 66 65 65 65 65 64 64 64 64 63 61 59 58 58 57 56
70 55 68 102 128 122 114 128 157 165 221 247 202 174 199 214 141 120 101 292 258 156 140 136 134 138 139 137 137 134 126 124 133 145 126 111 106 106 108 107 108 108 108 111 110 105 102 100 93 87 82 77 80 89 93 91 90 88 86 85 83 80 77 76 75 76 74 72 70 69 68 67 66 65 65 64 64 64 64 65 65 63 61 60 58 57
43 40 74 102 119 126 115 119 161 185 225 295 345 314 244 271 118 129 169 231 195 160 147 142 141 142 144 144 141 136 135 141 147 150 133 117 108 108 111 112 116 118 118 117 113 109 108 103 95 90 85 79 84 94 96 95 94 93 91 90 87 85 83 82 82 81 80 77 74 70 67 66 65 65 65 64 63 63 62 62 62 61 60 59 58 56
37 19 116 110 116 120 109 105 51 278 220 171 325 279 250 285 79 144 203 205 158 147 144 140 140 141 142 142 134 110 103 121 128 130 121 112 106 106 110 115 121 124 124 122 118 114 110 103 96 93 86 81 90 100 101 99 99 98 96 93 90 90 91 89 86 83 79 77 74 70 66 65 65 66 68 69 69 68 66 63 62 61 61 60 59 58
166 171 105 96 126 136 107 107 128 288 268 155 278 266 216 161 208 202 185 149 143 143 138 133 137 137 128 114 105 106 108 113 119 120 115 112 110 111 115 119 121 119 117 115 112 107 103 98 95 93 88 86 93 100 102 99 94 93 94 92 91 93 94 91 88 85 80 77 75 72 67 66 68 69 70 72 74 72 69 68 67 65 63 62 61 61
169 137 103 113 152 131 98 96 130 186 229 259 290 292 176 165 200 166 120 118 132 135 133 134 136 128 117 112 114 118 118 118 119 120 116 114 114 114 118 120 119 117 116 115 111 107 102 97 94 94 92 93 95 98 99 97 92 90 90 89 92 97 96 91 88 87 84 82 80 77 71 68 69 70 69 70 73 72 70 70 69 67 63 62 61 61
205 141 134 163 236 140 132 153 186 205 240 253 224 96 62 101 126 121 117 121 128 129 130 132 128 120 121 124 124 122 122 123 123 122 119 119 119 119 121 122 121 120 119 116 111 108 105 102 100 98 98 98 98 98 99 98 96 94 92 91 95 99 98 94 89 87 88 88 86 83 76 71 70 70 70 70 70 70 68 67 68 68 65 63 61 59
254 163 144 133 212 137 131 169 223 234 355 57 85 92 84 84 89 98 107 115 122 126 126 126 125 125 127 128 127 125 126 125 121 119 119 121 124 125 123 120 118 117 116 113 111 109 108 108 107 105 103 102 102 102 103 102 100 97 96 99 101 100 101 100 95 91 92 93 93 91 84 78 74 72 71 71 69 68 67 65 65 65 64 64 61 59
128 146 118 102 129 109 68 33 325 73 73 73 77 78 80 84 89 93 96 98 106 114 119 125 129 131 131 131 128 125 126 126 121 119 123 125 127 127 125 123 122 121 119 117 115 114 113 112 110 108 106 105 104 103 103 104 104 102 102 105 107 105 106 105 101 98 97 95 96 95 90 85 81 77 75 74 72 71 69 67 66 64 63 63 61 60
180 172 99 107 150 138 63 340 53 84 91 89 83 80 78 78 81 88 93 97 101 108 118 126 127 127 129 130 128 126 126 126 124 123 125 126 123 122 121 122 122 120 119 119 120 121 120 117 115 113 110 108 106 104 103 103 103 105 107 107 106 107 107 106 107 108 106 100 96 94 93 91 90 86 82 78 76 74 72 70 68 65 62 61 60 60
190 145 96 108 130 110 124 177 107 84 87 86 85 91 91 89 90 91 96 105 110 113 119 122 123 127 129 128 128 126 124 125 126 125 123 114 105 105 109 114 118 117 116 118 121 122 120 117 115 114 111 109 108 107 106 104 103 105 108 107 107 108 105 102 104 109 113 111 103 96 94 94 92 90 88 84 79 77 75 73 71 69 65 61 59 59
107 103 99 110 111 99 115 144 114 90 77 72 84 94 93 95 100 101 105 114 118 117 115 113 114 122 123 121 123 121 118 116 110 107 106 101 99 101 105 111 115 114 111 114 117 117 114 112 113 113 113 115 117 118 116 112 110 108 105 103 104 104 100 95 93 94 99 109 111 104 97 95 93 91 90 88 85 82 79 77 76 74 72 67 63 61
64 96 107 111 118 143 173 160 133 114 102 95 99 100 99 101 105 107 113 118 118 119 119 116 112 110 109 112 118 118 116 113 109 107 108 107 108 111 113 116 118 116 112 113 115 115 112 111 112 111 111 113 115 116 114 113 113 113 112 107 104 101 98 95 93 91 92 97 105 110 106 100 96 93 92 92 91 89 86 83 80 78 76 72 67 64
65 143 166 148 146 173 173 151 121 105 110 113 108 104 106 110 113 116 121 122 120 123 125 123 120 115 105 106 115 120 121 122 122 121 116 111 116 120 119 122 130 129 120 115 114 112 111 112 112 109 107 106 105 102 100 98 98 102 109 112 111 107 104 100 96 94 93 91 92 96 102 104 103 100 96 94 92 92 91 89 84 81 79 75 70 66